Latest Weather Observations for Jimna

IDQ60901

Issued at 8:05 am EST Sunday 21 September 2014 (issued every 10 minutes, with the page automatically refreshed every 10 minutes)

About weather observations | Map of Brisbane area stations | Latest observations for Brisbane area | Other Formats
Station Details ID: 040651 Name: JIMNA FORESTRY Lat: -26.66 Lon: 152.46 Height: 523.0 m
Data from the previous 72 hours. | See also: Recent months at Jimna
Date/Time
EST
Tmp

°C
App
Tmp
°C
Dew
Point
°C
Rel
Hum
%
Delta-T

°C
Wind Press
QNH
hPa
Press
MSL
hPa
Rain
since
9 am
mm
Dir
 
Spd
km/h
Gust
km/h
Spd
kts
Gust
kts
21/08:00am 14.5 - 8.9 69 2.9 - - - - - - - 1.8
21/07:30am 13.9 - 8.1 68 3.0 - - - - - - - 1.8
21/07:00am 13.1 - 8.4 73 2.4 - - - - - - - 1.8
21/06:30am 12.5 - 8.2 75 2.2 - - - - - - - 1.8
21/06:00am 12.1 - 8.6 79 1.8 - - - - - - - 1.8
21/05:30am 11.1 - 9.2 88 1.0 - - - - - - - 1.8
21/05:00am 10.7 - 9.3 91 0.7 - - - - - - - 1.8
21/04:30am 11.0 - 9.4 90 0.8 - - - - - - - 1.8
21/04:00am 11.4 - 9.8 90 0.8 - - - - - - - 1.8
21/03:30am 11.9 - 9.8 87 1.1 - - - - - - - 1.8
21/03:00am 12.2 - 10.1 87 1.1 - - - - - - - 1.8
21/02:30am 12.8 - 10.0 83 1.5 - - - - - - - 1.8
21/02:00am 13.4 - 9.8 79 1.9 - - - - - - - 1.6
21/01:30am 13.6 - 10.2 80 1.8 - - - - - - - 1.6
21/01:00am 13.4 - 10.2 81 1.7 - - - - - - - 1.6
21/12:30am 13.6 - 10.4 81 1.7 - - - - - - - 1.6
21/12:00am 13.8 - 10.4 80 1.8 - - - - - - - 1.6
 
Date/Time
EST
Tmp

°C
App
Tmp
°C
Dew
Point
°C
Rel
Hum
%
Delta-T

°C
Wind Press
QNH
hPa
Press
MSL
hPa
Rain
since
9 am
mm
Dir
 
Spd
km/h
Gust
km/h
Spd
kts
Gust
kts
20/11:30pm 13.8 - 10.6 81 1.7 - - - - - - - 1.6
20/11:00pm 13.9 - 10.9 82 1.6 - - - - - - - 1.6
20/10:30pm 13.8 - 10.8 82 1.6 - - - - - - - 1.6
20/10:00pm 13.8 - 10.8 82 1.6 - - - - - - - 1.6
20/09:30pm 13.8 - 11.0 83 1.5 - - - - - - - 1.6
20/09:00pm 13.8 - 11.1 84 1.5 - - - - - - - 1.6
20/08:30pm 13.9 - 11.4 85 1.4 - - - - - - - 1.6
20/08:00pm 13.9 - 11.6 86 1.3 - - - - - - - 1.6
20/07:30pm 13.8 - 11.8 88 1.1 - - - - - - - 1.6
20/07:00pm 13.8 - 12.0 89 1.0 - - - - - - - 1.6
20/06:30pm 14.1 - 12.3 89 1.0 - - - - - - - 1.6
20/06:00pm 14.2 - 12.4 89 1.0 - - - - - - - 1.6
20/05:30pm 14.7 - 12.4 86 1.3 - - - - - - - 1.4
20/05:00pm 15.8 - 12.0 78 2.1 - - - - - - - 0.0
20/04:30pm 16.6 - 11.5 72 2.8 - - - - - - - 0.0
20/04:00pm 16.8 - 11.5 71 2.9 - - - - - - - 0.0
20/03:30pm 17.6 - 11.4 67 3.5 - - - - - - - 0.0
20/03:00pm 17.8 - 11.1 65 3.7 - - - - - - - 0.0
20/02:30pm 18.3 - 11.1 63 4.0 - - - - - - - 0.0
20/02:00pm 19.6 - 9.8 53 5.4 - - - - - - - 0.0
20/01:30pm 20.1 - 9.9 52 5.6 - - - - - - - 0.0
20/01:00pm 20.2 - 10.6 54 5.3 - - - - - - - 0.0
20/12:30pm 20.5 - 10.3 52 5.7 - - - - - - - 0.0
20/12:00pm 19.5 - 9.1 51 5.6 - - - - - - - 0.0
20/11:30am 20.0 - 9.0 49 5.9 - - - - - - - 0.0
20/11:00am 21.3 - 9.2 46 6.6 - - - - - - - 0.0
20/10:30am 19.5 - 9.1 51 5.6 - - - - - - - 0.0
20/10:00am 19.1 - 9.0 52 5.4 - - - - - - - 0.0
20/09:30am 19.3 - 8.9 51 5.6 - - - - - - - 0.0
20/09:00am 18.9 - 9.4 54 5.1 - - - - - - - 0.0
20/08:30am 18.2 - 10.8 62 4.1 - - - - - - - 0.0
20/08:00am 17.3 - 11.8 70 3.1 - - - - - - - 0.0
20/07:30am 13.7 - 10.9 83 1.5 - - - - - - - 0.0
20/07:00am 10.6 - 9.4 92 0.6 - - - - - - - 0.0
20/06:30am 8.2 - 7.3 94 0.4 - - - - - - - 0.0
20/06:00am 7.5 - 6.3 92 0.6 - - - - - - - 0.0
20/05:30am 7.3 - 6.1 92 0.6 - - - - - - - 0.0
20/05:00am 7.6 - 6.2 91 0.7 - - - - - - - 0.0
20/04:30am 7.9 - 6.7 92 0.6 - - - - - - - 0.0
20/04:00am 8.0 - 6.8 92 0.6 - - - - - - - 0.0
20/03:30am 8.2 - 7.0 92 0.6 - - - - - - - 0.0
20/03:00am 8.1 - 6.7 91 0.7 - - - - - - - 0.0
20/02:30am 8.5 - 7.1 91 0.7 - - - - - - - 0.0
20/02:00am 8.6 - 6.9 89 0.8 - - - - - - - 0.0
20/01:30am 9.2 - 7.6 90 0.8 - - - - - - - 0.0
20/01:00am 9.5 - 7.6 88 0.9 - - - - - - - 0.0
20/12:30am 10.3 - 8.6 89 0.9 - - - - - - - 0.0
20/12:00am 10.8 - 8.9 88 1.0 - - - - - - - 0.0
 
Date/Time
EST
Tmp

°C
App
Tmp
°C
Dew
Point
°C
Rel
Hum
%
Delta-T

°C
Wind Press
QNH
hPa
Press
MSL
hPa
Rain
since
9 am
mm
Dir
 
Spd
km/h
Gust
km/h
Spd
kts
Gust
kts
19/11:30pm 11.1 - 9.0 87 1.1 - - - - - - - 0.0
19/11:00pm 11.1 - 8.8 86 1.2 - - - - - - - 0.0
19/10:30pm 11.5 - 8.5 82 1.5 - - - - - - - 0.0
19/10:00pm 12.3 - 8.8 79 1.8 - - - - - - - 0.0
19/09:30pm 13.5 - 9.4 76 2.1 - - - - - - - 0.0
19/09:00pm 14.1 - 9.5 74 2.4 - - - - - - - 0.0
19/08:30pm 14.4 - 9.8 74 2.4 - - - - - - - 0.0
19/08:00pm 14.8 - 10.0 73 2.6 - - - - - - - 0.0
19/07:30pm 15.2 - 10.0 71 2.8 - - - - - - - 0.0
19/07:00pm 15.7 - 10.0 69 3.1 - - - - - - - 0.0
19/06:30pm 16.3 - 9.9 66 3.4 - - - - - - - 0.0
19/06:00pm 17.1 - 9.3 60 4.2 - - - - - - - 0.0
19/05:30pm 18.2 - 9.5 57 4.7 - - - - - - - 0.0
19/05:00pm 20.1 - 6.8 42 6.9 - - - - - - - 0.0
19/04:30pm 21.9 - -4.2 17 11.1 - - - - - - - 0.0
19/04:00pm 22.7 - -4.4 16 11.6 - - - - - - - 0.0
19/03:30pm 23.5 - -4.6 15 12.0 - - - - - - - 0.0
19/03:00pm 22.9 - -5.1 15 11.8 - - - - - - - 0.0
19/02:30pm 23.4 - -0.8 20 11.1 - - - - - - - 0.0
19/02:00pm 23.7 - -0.6 20 11.2 - - - - - - - 0.0
19/01:30pm 22.7 - -4.4 16 11.6 - - - - - - - 0.0
19/01:00pm 23.1 - -2.5 18 11.4 - - - - - - - 0.0
19/12:30pm 23.2 - -1.7 19 11.2 - - - - - - - 0.0
19/12:00pm 22.2 - -2.5 19 10.9 - - - - - - - 0.0
19/11:30am 22.5 - 0.9 24 10.2 - - - - - - - 0.0
19/11:00am 21.5 - 0.1 24 9.9 - - - - - - - 0.0
19/10:30am 21.2 - -0.7 23 9.9 - - - - - - - 0.0
19/10:00am 20.4 - -1.4 23 9.7 - - - - - - - 0.0
19/09:30am 19.9 - -0.7 25 9.2 - - - - - - - 0.0
19/09:00am 18.9 - 1.9 32 8.0 - - - - - - - 0.0
19/08:30am 18.0 - 2.7 36 7.2 - - - - - - - 0.0
19/08:00am 14.4 - 6.7 60 3.8 - - - - - - - 0.0
19/07:30am 10.0 - 5.6 74 2.1 - - - - - - - 0.0
19/07:00am 6.4 - 4.4 87 0.9 - - - - - - - 0.0
19/06:30am 2.8 - 1.9 94 0.4 - - - - - - - 0.0
19/06:00am 1.8 - 0.8 93 0.4 - - - - - - - 0.0
19/05:30am 1.9 - 0.7 92 0.5 - - - - - - - 0.0
19/05:00am 2.4 - 1.4 93 0.4 - - - - - - - 0.0
19/04:30am 2.4 - 0.9 90 0.6 - - - - - - - 0.0
19/04:00am 3.1 - 1.9 92 0.5 - - - - - - - 0.0
19/03:30am 3.4 - 2.2 92 0.5 - - - - - - - 0.0
19/03:00am 3.7 - 2.4 91 0.5 - - - - - - - 0.0
19/02:30am 3.6 - 2.0 89 0.7 - - - - - - - 0.0
19/02:00am 4.3 - 2.8 90 0.6 - - - - - - - 0.0
19/01:30am 4.4 - 2.4 87 0.8 - - - - - - - 0.0
19/01:00am 5.1 - 3.3 88 0.8 - - - - - - - 0.0
19/12:30am 5.3 - 3.0 85 1.0 - - - - - - - 0.0
19/12:00am 6.0 - 3.3 83 1.2 - - - - - - - 0.0
 
Date/Time
EST
Tmp

°C
App
Tmp
°C
Dew
Point
°C
Rel
Hum
%
Delta-T

°C
Wind Press
QNH
hPa
Press
MSL
hPa
Rain
since
9 am
mm
Dir
 
Spd
km/h
Gust
km/h
Spd
kts
Gust
kts
18/11:30pm 6.5 - 3.5 81 1.3 - - - - - - - 0.0
18/11:00pm 7.0 - 3.4 78 1.6 - - - - - - - 0.0
18/10:30pm 7.7 - 3.7 76 1.8 - - - - - - - 0.0
18/10:00pm 8.3 - 3.2 70 2.2 - - - - - - - 0.0
18/09:30pm 9.0 - 3.2 67 2.6 - - - - - - - 0.0
18/09:00pm 9.6 - 2.9 63 3.0 - - - - - - - 0.0
18/08:30pm 10.6 - 2.4 57 3.6 - - - - - - - 0.0
18/08:00pm 11.7 - 1.9 51 4.3 - - - - - - - 0.0
18/07:30pm 12.7 - 1.1 45 5.1 - - - - - - - 0.0
18/07:00pm 13.3 - -2.6 33 6.4 - - - - - - - 0.0
18/06:30pm 14.2 - -2.7 31 6.9 - - - - - - - 0.0
18/06:00pm 15.6 - -3.8 26 7.8 - - - - - - - 0.0
18/05:30pm 16.9 - -3.2 25 8.3 - - - - - - - 0.0
18/05:00pm 18.8 - -1.6 25 8.9 - - - - - - - 0.0
18/04:30pm 20.8 - -6.7 15 11.0 - - - - - - - 0.0
18/04:00pm 21.8 - -5.9 15 11.4 - - - - - - - 0.0
18/03:30pm 22.3 - -4.7 16 11.4 - - - - - - - 0.0
18/03:00pm 22.3 - -5.6 15 11.6 - - - - - - - 0.0
18/02:30pm 22.3 - -2.4 19 10.9 - - - - - - - 0.0
18/02:00pm 22.1 - -4.1 17 11.2 - - - - - - - 0.0
18/01:30pm 21.6 - -2.3 20 10.5 - - - - - - - 0.0
18/01:00pm 21.5 - -1.7 21 10.3 - - - - - - - 0.0
18/12:30pm 21.5 - -2.4 20 10.5 - - - - - - - 0.0
18/12:00pm 21.4 - -2.5 20 10.5 - - - - - - - 0.0
18/11:30am 20.3 - -2.7 21 9.9 - - - - - - - 0.0
18/11:00am 20.5 - -2.5 21 10.0 - - - - - - - 0.0
18/10:30am 19.5 - 1.0 29 8.5 - - - - - - - 0.0
18/10:00am 18.8 - -1.1 26 8.8 - - - - - - - 0.0
18/09:30am 18.7 - -1.7 25 8.9 - - - - - - - 0.0
18/09:00am 17.8 - -1.9 26 8.5 - - - - - - - 0.0
18/08:30am 17.2 - -1.4 28 8.0 - - - - - - - 0.0

Latest Capital City Observations: Canberra | Sydney | Melbourne | Brisbane | Adelaide | Perth | Hobart | Darwin

Other Formats:

Comma delimited format used in spreadsheet applications
http://www.bom.gov.au/fwo/IDQ60901/IDQ60901.94557.axf

JavaScript Object Notation format (JSON) in row-major order
http://www.bom.gov.au/fwo/IDQ60901/IDQ60901.94557.json